[[{"header":{"parameterUnit":"m.s-1","parameterCategory":1,"la1":30.2991,"la2":30.254,"lo1":-89.0895,"lo2":-89.0444,"dy":0.0017,"dx":0.0017,"nx":28,"ny":28,"refTime":"2024-07-15T09:00:00:Z","depth":0,"parameterNumber":2,"parameterNumberName":"U-component_of_WINDS"},"data":[0,0,0,0,0,0,0,0,0,0,0,0,0,0,0,0,0,0,0,0,0,0,0,0,0,0,0,0,0,0,0,0,0,0,0,0,0,0,0,0,0,0,0,0,0,0,0,0,0,0,0,0,0,0,0,0,0,0,4.2205,4.2206,0,4.2326,4.2327,4.2328,4.2267,4.2264,4.2261,4.2258,4.2381,4.2387,4.2393,0,0,0,0,0,0,0,0,0,0,0,0,0,4.1918,4.1924,4.2205,4.2206,4.2208,4.2325,4.2327,4.2329,4.2268,4.2264,4.226,4.2257,4.2379,4.2386,4.2394,0,0,0,0,0,0,0,0,0,0,0,0,0,4.2041,4.1926,4.2204,4.2192,4.2192,4.2325,4.2327,4.2329,4.2269,4.2264,4.2259,4.2255,4.2377,4.2386,4.2395,4.2547,0,0,4.2423,4.2427,0,0,0,0,0,0,0,0,4.2034,4.2052,4.2192,4.2193,4.2193,4.2277,4.2271,4.2402,4.227,4.224,4.2258,4.2253,4.235,4.2361,4.2394,4.2553,4.2558,4.2424,4.243,4.2434,4.2437,0,0,0,0,0,0,0,4.2026,4.2046,4.2252,4.2194,4.2195,4.2179,4.2191,4.2296,4.232,4.2242,4.2238,4.2253,4.2349,4.2386,4.2397,4.256,4.2424,4.2432,4.2438,4.2442,4.2846,4.2851,0,0,0,0,0,0,4.2018,4.204,4.2249,4.2256,4.21,4.2188,4.2202,4.2255,4.2319,4.2324,4.2257,4.225,4.2372,4.2386,4.2401,4.2581,4.2434,4.2443,4.2448,4.2841,4.2847,4.2853,0,0,0,0,0,0,4.2012,4.2038,4.2244,4.2147,4.2172,4.2198,4.2258,4.2259,4.2295,4.233,4.2334,4.2289,4.2369,4.2388,4.2511,4.2584,4.2447,4.2455,4.2835,4.2843,4.285,4.2943,0,0,0,0,0,0,4.2004,4.2036,4.2095,4.2149,4.2177,4.2353,4.2263,4.2265,4.2312,4.2303,4.2362,4.2367,4.2367,4.2497,4.252,4.2595,4.2463,4.2828,4.2838,4.2847,4.2934,4.2953,4.297,0,0,0,0,0,4.1994,4.2117,4.2098,4.2124,4.2252,4.2357,4.2373,4.2371,4.2318,4.2377,4.2398,4.2365,4.2573,4.251,4.2535,4.2614,4.2824,4.2835,4.2847,4.2926,4.295,4.297,0,0,0,0,0,0,4.2072,4.2124,4.2104,4.2248,4.2298,4.2347,4.2421,4.2397,4.2463,4.2453,4.2447,4.246,4.2587,4.2613,4.2542,4.2763,4.269,4.2707,4.2741,4.2764,4.2782,4.2772,4.247,0,0,0,0,0,4.2106,4.2188,4.2229,4.2352,4.2378,4.2395,4.2441,4.2435,4.2487,4.2508,4.2539,4.259,4.2666,4.2717,4.279,4.2938,4.2947,4.3004,4.3022,4.3037,4.3051,4.3128,4.3152,4.2891,4.2891,4.289,0,0,4.2177,4.2215,4.2268,4.2368,4.2407,4.249,4.2414,4.2506,4.2567,4.2522,4.2639,4.2663,4.272,4.2855,4.2916,4.288,4.3125,4.3051,4.3063,4.3069,4.3142,4.3167,4.3189,4.2898,4.2897,4.2896,0,0,4.2348,4.2387,4.2492,4.2531,4.259,4.26,4.2625,4.2677,4.2691,4.2808,4.2775,4.2847,4.298,4.3021,4.3059,4.3242,4.3212,4.3266,4.336,4.3435,4.3455,4.3474,4.3536,4.3559,4.3281,4.3281,4.3281,0,4.2429,4.2554,4.2549,4.2643,4.2687,4.2649,4.2753,4.2792,4.2872,4.2902,4.2861,4.3025,4.3061,4.3203,4.3247,4.3281,4.3307,4.3259,4.3453,4.3471,4.3488,4.3547,4.3571,4.3287,4.3286,4.3286,4.3285,0,4.2648,4.2735,4.2813,4.2889,4.2942,4.3041,4.305,4.3104,4.3092,4.3106,4.3224,4.3265,4.3344,4.3377,4.3368,4.3518,4.3493,4.3453,4.3379,4.3519,4.3574,4.3597,4.3295,4.3293,4.3291,4.329,0,0,4.2873,4.2943,4.2972,4.3004,4.3065,4.3132,4.3228,4.3304,4.3349,4.3405,4.3484,4.3596,4.3558,4.3601,4.3595,4.3661,4.3799,4.3612,4.3613,4.3643,4.3963,4.3991,4.4018,4.3781,4.3785,4.3788,4.3957,0,4.3046,4.3214,4.3211,4.3367,4.3445,4.3409,4.3492,4.3537,4.3553,4.362,4.3637,4.3715,4.3661,4.3686,4.375,4.3769,4.3863,4.3757,4.3852,4.3855,4.3836,4.4048,4.4079,4.4236,4.3979,4.3983,4.3986,0,4.3271,4.3332,4.3495,4.3541,4.3574,4.3649,4.3717,4.3783,4.3833,4.3839,4.3886,4.3869,4.3964,4.3888,4.4018,4.3946,4.3984,4.4,4.4006,4.4013,4.3928,4.4058,4.4287,4.4309,4.4021,4.4018,4.4015,0,4.3414,4.3538,4.3651,4.368,4.3738,4.3791,4.3817,4.3862,4.3907,4.3966,4.3995,4.4065,4.4103,4.4157,4.4158,4.4103,4.4288,4.4213,4.4294,4.4294,4.4333,4.433,4.4569,4.4362,4.4362,4.4361,4.4361,0,4.3607,4.3707,4.3715,4.3785,4.3895,4.389,4.3999,4.402,4.406,4.4131,4.4105,4.4172,4.4171,4.4239,4.4241,4.4346,4.4364,4.437,4.4369,4.4371,4.437,4.4395,4.4383,4.4368,4.4366,4.4365,4.4364,0,4.3786,4.3796,4.3915,4.3959,4.3972,4.4052,4.4088,4.4153,4.4165,4.4255,4.4276,4.4294,4.4372,4.4379,4.4471,4.4471,4.4598,4.4586,4.4581,4.4578,4.4657,4.4648,4.4918,4.4951,4.4725,4.4727,4.4729,0,4.3907,4.3983,4.4034,4.408,4.4108,4.4183,4.4228,4.4225,4.4273,4.4333,4.439,4.4466,4.4525,4.4652,4.4673,4.4741,4.4729,4.4819,4.4739,4.4738,4.4727,4.4721,4.4727,4.4834,4.4836,4.4838,4.484,0,4.412,4.412,4.4186,4.4254,4.4308,4.4361,4.4411,4.445,4.4452,4.4507,4.4586,4.4633,4.4724,4.4798,4.4865,4.4891,4.4865,4.4865,4.4886,4.4889,4.4881,4.4883,4.462,4.4858,4.4857,4.4855,4.4854,4.4854,4.4272,4.4336,4.4381,4.4455,4.4492,4.4538,4.4599,4.4618,4.4684,4.4758,4.4752,4.4839,4.4884,4.497,4.5001,4.5067,4.5037,4.5069,4.5077,4.5084,4.5091,4.4872,4.508,4.5079,4.5079,4.5079,4.5078,0,4.4481,4.4507,4.4575,4.4644,4.4701,4.4673,4.4725,4.4774,4.4851,4.4895,4.4954,4.5043,4.5114,4.514,4.5208,4.5256,4.5246,4.5274,4.5269,4.5275,4.5116,4.5089,4.5281,4.5281,4.5281,4.5281,4.5281,4.5281,4.4596,4.4702,4.4708,4.4831,4.4857,4.4941,4.4973,4.5014,4.5049,4.5149,4.5208,4.5224,4.526,4.533,4.5393,4.5399,4.5424,4.5456,4.5457,4.5307,4.5287,4.5267,4.5241,4.5463,4.5463,4.561,4.5611,4.5612]},{"header":{"parameterUnit":"m.s-1","parameterCategory":1,"la1":30.2991,"la2":30.254,"lo1":-89.0895,"lo2":-89.0444,"dy":0.0017,"dx":0.0017,"nx":28,"ny":28,"refTime":"2024-07-15T09:00:00:Z","depth":0,"parameterNumber":3,"parameterNumberName":"V-component_of_WINDS"},"data":[0,0,0,0,0,0,0,0,0,0,0,0,0,0,0,0,0,0,0,0,0,0,0,0,0,0,0,0,0,0,0,0,0,0,0,0,0,0,0,0,0,0,0,0,0,0,0,0,0,0,0,0,0,0,0,0,0,0,1.6475,1.6475,0,1.6519,1.6519,1.652,1.6499,1.6498,1.6497,1.6496,1.6541,1.6544,1.6546,0,0,0,0,0,0,0,0,0,0,0,0,0,1.6372,1.6374,1.6475,1.6476,1.6476,1.6519,1.652,1.652,1.65,1.6498,1.6497,1.6496,1.6541,1.6543,1.6546,0,0,0,0,0,0,0,0,0,0,0,0,0,1.6416,1.6374,1.6475,1.6471,1.6471,1.6519,1.652,1.652,1.65,1.6498,1.6497,1.6495,1.654,1.6543,1.6546,1.6601,0,0,1.6557,1.6558,0,0,0,0,0,0,0,0,1.6414,1.642,1.6471,1.6471,1.6472,1.6502,1.65,1.6547,1.65,1.6489,1.6496,1.6494,1.653,1.6534,1.6546,1.6603,1.6605,1.6557,1.6559,1.656,1.6561,0,0,0,0,0,0,0,1.6411,1.6418,1.6492,1.6472,1.6472,1.6467,1.6471,1.6509,1.6518,1.649,1.6488,1.6494,1.6529,1.6542,1.6547,1.6605,1.6557,1.656,1.6562,1.6563,1.6706,1.6708,0,0,0,0,0,0,1.6408,1.6416,1.6491,1.6494,1.6438,1.647,1.6475,1.6494,1.6518,1.652,1.6495,1.6493,1.6538,1.6543,1.6548,1.6612,1.656,1.6564,1.6565,1.6705,1.6707,1.6709,0,0,0,0,0,0,1.6406,1.6415,1.6489,1.6454,1.6463,1.6473,1.6495,1.6496,1.6509,1.6522,1.6523,1.6507,1.6536,1.6543,1.6587,1.6613,1.6565,1.6568,1.6703,1.6705,1.6708,1.674,0,0,0,0,0,0,1.6403,1.6414,1.6435,1.6455,1.6465,1.6528,1.6497,1.6498,1.6514,1.6512,1.6533,1.6535,1.6536,1.6582,1.659,1.6617,1.6571,1.67,1.6704,1.6707,1.6737,1.6744,1.675,0,0,0,0,0,1.6399,1.6443,1.6437,1.6446,1.6492,1.653,1.6536,1.6535,1.6517,1.6538,1.6546,1.6534,1.6609,1.6587,1.6596,1.6624,1.6699,1.6703,1.6707,1.6734,1.6743,1.675,0,0,0,0,0,0,1.6427,1.6446,1.6439,1.649,1.6509,1.6526,1.6553,1.6544,1.6568,1.6565,1.6563,1.6568,1.6613,1.6623,1.6598,1.6676,1.6651,1.6657,1.6669,1.6677,1.6683,1.668,1.6574,0,0,0,0,0,1.6439,1.6469,1.6483,1.6527,1.6537,1.6543,1.656,1.6558,1.6576,1.6584,1.6595,1.6614,1.6641,1.6659,1.6685,1.6738,1.6742,1.6761,1.6768,1.6773,1.6778,1.6805,1.6813,1.6722,1.6722,1.6722,0,0,1.6465,1.6479,1.6497,1.6533,1.6547,1.6577,1.655,1.6583,1.6605,1.6589,1.6631,1.664,1.666,1.6708,1.673,1.6717,1.6804,1.6778,1.6782,1.6785,1.681,1.6819,1.6826,1.6725,1.6724,1.6724,0,0,1.6527,1.654,1.6578,1.6592,1.6613,1.6616,1.6625,1.6644,1.6649,1.669,1.6679,1.6704,1.6752,1.6766,1.678,1.6844,1.6834,1.6853,1.6886,1.6912,1.6919,1.6925,1.6947,1.6955,1.6858,1.6858,1.6858,0,1.6556,1.66,1.6598,1.6632,1.6647,1.6633,1.6671,1.6684,1.6713,1.6724,1.6709,1.6767,1.678,1.683,1.6846,1.6857,1.6867,1.685,1.6918,1.6925,1.693,1.6951,1.696,1.686,1.686,1.6859,1.6859,0,1.6635,1.6665,1.6693,1.672,1.6739,1.6774,1.6776,1.6795,1.6791,1.6796,1.6837,1.6852,1.688,1.6891,1.6888,1.6941,1.6932,1.6918,1.6893,1.6941,1.6961,1.6969,1.6863,1.6862,1.6861,1.6861,0,0,1.6717,1.674,1.6751,1.6762,1.6783,1.6806,1.684,1.6867,1.6882,1.6902,1.693,1.6969,1.6955,1.6971,1.6968,1.6991,1.704,1.6974,1.6974,1.6985,1.7097,1.7108,1.7117,1.7033,1.7034,1.7036,1.7095,0,1.6779,1.6839,1.6837,1.6892,1.6919,1.6906,1.6935,1.695,1.6955,1.6979,1.6984,1.7011,1.6992,1.7001,1.7023,1.7029,1.7062,1.7025,1.7058,1.7059,1.7053,1.7127,1.7139,1.7195,1.7103,1.7104,1.7105,0,1.6861,1.6882,1.694,1.6954,1.6966,1.6992,1.7015,1.7038,1.7055,1.7057,1.7073,1.7066,1.7099,1.7072,1.7117,1.7092,1.7105,1.711,1.7112,1.7115,1.7085,1.7132,1.7212,1.7221,1.7117,1.7116,1.7116,0,1.6914,1.6957,1.6996,1.7006,1.7025,1.7043,1.7052,1.7067,1.7082,1.7102,1.7112,1.7136,1.7149,1.7167,1.7167,1.7148,1.7212,1.7185,1.7214,1.7214,1.7228,1.7228,1.7312,1.7237,1.7237,1.7237,1.7237,0,1.6984,1.702,1.702,1.7044,1.7083,1.708,1.7118,1.7125,1.7138,1.7163,1.7152,1.7175,1.7173,1.7197,1.7196,1.7233,1.7239,1.7241,1.724,1.7242,1.7241,1.7251,1.7247,1.7239,1.7239,1.7238,1.7238,0,1.705,1.7052,1.7094,1.7107,1.7112,1.7139,1.7151,1.7173,1.7176,1.7207,1.7215,1.7219,1.7246,1.7247,1.7278,1.7278,1.7322,1.7317,1.7316,1.7315,1.7343,1.734,1.7436,1.7448,1.7366,1.7367,1.7368,0,1.7095,1.7122,1.7137,1.7153,1.7162,1.7188,1.7203,1.72,1.7216,1.7236,1.7256,1.7281,1.7301,1.7344,1.735,1.7373,1.7369,1.7401,1.7372,1.7372,1.7368,1.7367,1.7369,1.7406,1.7407,1.7408,1.7409,0,1.7173,1.7172,1.7195,1.7217,1.7235,1.7253,1.7269,1.7282,1.7281,1.73,1.7326,1.7342,1.7372,1.7398,1.7419,1.7428,1.7418,1.7417,1.7425,1.7427,1.7425,1.7425,1.7331,1.7415,1.7415,1.7414,1.7414,1.7414,1.723,1.7252,1.7266,1.7291,1.7302,1.7317,1.7339,1.7344,1.7366,1.739,1.7387,1.7416,1.743,1.7458,1.7468,1.7491,1.748,1.7491,1.7494,1.7497,1.7499,1.7421,1.7495,1.7494,1.7494,1.7494,1.7494,0,1.7307,1.7315,1.7337,1.736,1.7379,1.7367,1.7384,1.74,1.7426,1.744,1.746,1.7489,1.7513,1.752,1.7543,1.7559,1.7555,1.7565,1.7564,1.7565,1.7508,1.7499,1.7568,1.7568,1.7568,1.7568,1.7568,1.7568,1.7349,1.7386,1.7386,1.7428,1.7436,1.7464,1.7474,1.7488,1.7498,1.7532,1.7551,1.7555,1.7566,1.7589,1.7609,1.7611,1.7619,1.7631,1.7631,1.7577,1.757,1.7563,1.7554,1.7633,1.7633,1.7686,1.7686,1.7687]}]]